Wind_Speed
92 93 94 95 97 98 99 99 100 101 102 103 104 105 106 107 108 109 110 110 111 111 110 110 109 107 106 104 102 101 99 97 95 92 90 87 84 81 78 75 73 71 69 68 67 67 66 66 65 65 64 63 62 61 59 59 58 58 58 59 59 59 59 59 60 61 62 62 63 64 65 67 68 70 71 73 74 76 77 78 80 81 82 83 85 86
93 94 95 96 97 98 100 100 101 102 103 105 106 107 108 109 109 110 111 111 111 111 110 110 108 107 105 103 102 100 98 96 93 91 88 85 82 79 76 74 72 70 69 68 67 67 67 66 66 66 65 63 62 60 59 58 58 58 59 59 59 60 60 60 61 62 62 63 64 65 66 68 69 71 72 74 75 77 78 80 81 82 83 85 86 88
95 96 97 98 98 99 100 101 103 104 105 106 107 108 109 110 111 111 112 112 112 111 110 109 108 106 105 103 101 99 97 95 92 89 87 84 81 78 75 73 71 69 68 68 68 68 67 67 67 66 65 64 62 60 59 58 58 59 59 60 60 60 61 61 62 63 63 64 65 66 67 69 70 72 73 75 77 78 79 81 82 83 85 86 88 89
97 97 98 99 100 100 101 103 104 106 107 108 109 110 111 111 112 112 112 112 112 111 110 109 107 106 104 102 100 98 95 93 90 88 85 82 80 77 74 72 70 69 68 68 68 68 68 67 67 67 66 64 63 61 60 59 59 60 61 61 61 61 61 62 63 63 64 65 66 67 68 70 72 73 75 76 78 79 81 82 83 85 86 88 89 90
99 99 100 101 102 102 103 104 106 107 109 110 110 111 112 112 113 113 113 112 112 111 109 108 106 104 102 100 98 96 93 91 88 86 83 81 79 76 74 71 69 68 68 68 69 69 68 68 67 67 66 65 63 61 60 60 61 61 61 61 62 62 62 63 64 64 65 66 67 68 70 71 73 74 76 78 79 81 82 83 85 86 87 89 90 91
101 101 102 103 103 104 105 106 107 109 110 111 112 112 113 113 113 113 113 112 111 110 108 106 105 103 101 99 96 94 91 89 86 84 82 79 78 76 73 70 69 68 68 68 69 69 68 68 67 67 66 65 64 62 61 61 61 62 62 62 62 63 63 64 65 66 66 67 69 70 71 73 74 76 78 79 80 82 83 85 86 87 89 90 91 92
103 103 104 105 106 106 107 108 109 110 112 112 113 113 114 114 113 113 112 111 110 108 107 105 103 101 99 97 94 92 89 87 84 82 80 78 76 75 73 70 68 68 68 68 68 68 68 68 68 67 67 66 64 63 62 62 62 62 63 63 63 64 64 65 66 67 68 69 70 71 72 74 76 77 79 80 82 83 85 86 87 89 90 91 92 93
105 105 106 107 108 109 109 110 111 112 113 114 114 114 114 114 113 112 111 110 108 107 105 103 102 100 97 95 92 90 87 85 83 81 78 77 75 74 72 70 68 67 68 68 68 68 68 68 68 68 67 66 65 63 63 63 63 63 63 64 64 65 66 67 67 68 69 70 71 72 74 75 77 79 80 82 83 85 86 87 89 90 91 92 93 94
108 108 108 109 110 111 112 112 113 113 114 115 114 114 114 114 113 112 110 109 107 105 103 101 100 98 96 93 91 88 86 83 81 79 77 75 74 73 71 69 68 67 67 68 68 68 68 68 69 68 68 66 65 64 64 63 64 64 64 64 65 66 67 68 68 69 70 71 72 73 75 77 78 80 81 83 85 86 87 89 90 91 92 93 94 95
110 110 111 112 112 113 113 114 114 115 115 115 115 114 113 113 112 110 109 107 105 103 101 100 98 96 94 92 89 87 84 82 80 77 75 73 73 72 70 69 67 67 67 67 67 67 67 68 69 69 68 67 66 65 64 64 64 65 65 66 66 67 68 69 69 70 71 72 73 75 76 78 80 81 83 84 86 87 88 90 91 92 93 94 95 96
111 112 113 114 114 114 114 115 115 115 115 115 114 113 112 111 109 108 106 105 103 101 99 98 96 94 92 90 88 85 83 80 78 76 74 72 71 71 69 68 67 67 67 67 66 66 67 68 68 69 68 67 66 66 65 65 65 66 66 67 68 69 69 70 71 71 72 73 74 76 77 79 81 82 84 85 87 88 90 91 92 93 94 95 96 97
112 113 114 115 115 115 115 115 115 114 114 114 113 112 110 109 107 105 104 102 100 99 98 96 95 93 90 88 85 83 81 79 76 74 72 71 70 69 68 67 66 66 67 67 66 66 67 68 68 69 68 68 67 66 66 66 66 66 67 68 69 70 70 71 72 72 73 74 75 77 79 80 82 84 85 87 88 89 90 92 93 94 95 96 97 98
112 113 114 114 114 114 114 114 114 113 113 112 111 110 108 106 105 103 101 99 98 97 95 94 93 91 88 86 83 81 79 77 75 73 71 70 69 68 67 66 66 66 66 66 66 66 67 68 69 69 69 68 67 67 67 66 67 67 68 69 70 71 71 72 73 73 74 75 76 78 80 82 83 85 86 88 89 90 91 92 93 94 96 97 98 100
111 112 113 112 112 112 112 112 111 111 111 110 109 107 106 104 102 101 99 97 96 94 93 92 90 88 86 84 82 79 77 75 73 71 70 69 69 68 66 65 65 65 66 66 66 67 67 68 69 69 69 68 68 68 67 67 68 68 69 70 71 71 72 73 73 74 75 76 78 79 81 83 84 86 87 89 90 91 92 93 94 95 96 98 99 101
110 110 110 110 110 110 109 109 109 108 108 107 106 105 104 102 100 99 97 95 94 92 91 89 88 86 84 81 79 77 75 73 72 70 69 68 68 66 65 64 64 65 65 65 66 67 68 69 69 69 69 69 69 68 68 68 68 69 70 70 71 72 73 73 74 75 76 77 79 80 82 84 85 87 88 89 91 92 93 94 95 96 97 99 101 102
108 108 108 107 107 107 107 106 106 105 105 104 103 102 101 100 99 97 96 94 92 90 88 87 85 83 81 80 78 75 73 72 70 69 68 67 66 65 64 63 63 64 65 65 65 67 68 69 69 69 69 69 69 69 69 69 69 69 70 71 72 72 73 74 75 76 77 78 80 81 83 84 86 88 89 90 91 92 93 94 96 97 98 100 102 103
105 105 105 105 104 104 104 104 103 103 102 101 101 100 99 98 97 95 94 92 90 87 86 84 82 80 79 78 76 74 72 70 69 68 67 66 65 65 63 63 63 64 64 64 65 66 68 69 69 69 69 69 69 69 69 69 69 70 70 71 72 73 74 74 75 77 78 79 80 82 84 85 87 88 90 91 92 93 94 95 97 98 100 101 103 104
103 103 103 103 102 102 101 101 101 101 100 99 98 98 97 96 95 93 92 89 87 85 83 81 80 78 76 74 73 72 70 68 68 67 66 65 64 64 63 62 62 63 64 64 65 66 67 69 69 69 69 69 70 70 69 69 70 70 71 71 72 73 74 75 76 77 79 80 81 83 85 86 88 89 90 92 93 94 95 96 98 99 101 102 104 105
101 101 101 101 100 100 99 99 98 98 98 97 96 96 95 94 93 91 89 87 84 82 80 78 77 76 74 72 72 71 69 67 66 66 65 64 64 63 63 62 62 63 63 63 64 65 67 68 69 69 69 70 70 70 69 69 70 70 71 72 72 73 75 76 77 78 79 81 82 84 85 87 89 90 91 92 93 94 96 97 99 100 102 104 105 106
100 99 99 99 98 98 97 97 96 96 95 95 94 93 93 91 90 88 86 83 81 79 77 76 75 74 73 71 70 69 68 66 65 65 64 64 63 63 62 62 62 62 63 63 64 65 67 68 69 69 70 70 70 69 69 69 70 70 71 72 73 74 75 76 78 79 80 81 83 84 86 88 89 91 92 93 94 96 97 98 100 102 103 105 106 106
98 97 97 97 96 95 95 94 94 93 93 92 91 91 90 88 86 84 82 80 78 76 75 73 72 72 71 70 68 67 66 65 64 64 64 64 63 63 62 62 61 62 63 63 65 66 67 68 69 69 70 69 69 69 69 69 69 70 71 72 73 74 76 77 78 80 81 82 83 85 87 88 90 91 92 94 95 96 98 100 101 103 104 106 106 107
96 95 94 94 93 93 92 91 91 90 90 89 88 87 86 85 83 81 79 77 75 73 72 71 70 70 69 68 67 66 65 63 63 63 63 63 63 63 62 62 61 62 62 63 65 66 67 68 69 70 69 69 68 68 68 69 69 70 71 72 73 75 76 78 79 80 81 83 84 86 88 89 91 92 93 95 96 98 99 101 103 104 105 106 107 107
93 92 91 91 90 90 89 88 87 87 86 85 84 83 83 81 80 78 76 74 72 71 70 69 68 68 67 66 65 64 63 62 62 62 63 63 63 63 63 62 61 62 62 63 65 67 68 69 70 70 69 68 68 68 68 68 69 70 71 72 74 75 77 78 79 81 82 83 85 87 88 90 91 93 94 96 97 99 100 102 104 105 106 107 107 107
90 89 88 87 87 86 85 85 84 83 82 82 81 80 79 78 77 75 73 71 69 68 67 67 66 65 65 64 63 62 62 62 61 62 62 62 63 63 63 62 61 62 63 64 66 67 69 70 70 69 68 67 67 67 67 68 69 70 71 73 74 76 77 79 80 81 82 84 86 87 89 91 92 94 95 97 98 100 102 103 104 106 106 107 107 107
87 85 85 84 83 83 82 81 80 79 78 77 77 76 76 75 74 72 70 68 67 66 65 65 64 64 63 63 62 62 61 61 61 61 62 62 63 63 63 62 62 62 63 64 67 69 70 71 70 69 67 66 66 66 67 68 69 70 72 73 75 76 78 79 80 81 83 84 86 88 90 91 93 95 96 98 100 101 103 104 105 106 106 107 107 106
83 82 81 80 80 79 78 77 76 76 75 74 73 73 72 72 70 69 67 66 65 64 63 63 63 62 62 61 61 61 61 61 61 61 61 62 62 63 63 62 61 62 63 65 68 70 71 71 70 68 66 65 65 65 66 68 69 71 72 74 75 77 78 79 80 82 83 85 87 89 91 93 94 96 98 99 101 102 104 105 105 106 106 106 106 106
79 78 77 76 75 75 74 73 73 72 71 70 70 69 69 68 67 66 65 64 63 62 61 61 61 61 61 60 60 60 60 61 61 61 61 62 62 62 62 62 62 62 64 66 69 71 72 71 69 67 65 64 64 65 67 68 70 71 73 74 76 77 78 80 81 82 84 86 88 90 92 94 95 97 99 100 102 103 104 105 105 106 106 106 105 105
76 75 73 72 72 71 70 70 69 68 68 67 67 66 66 65 64 63 62 62 61 60 60 60 60 59 59 59 59 59 60 60 61 61 61 61 61 61 62 61 61 62 64 67 70 72 73 71 69 66 64 64 64 65 67 69 71 72 73 75 76 77 79 80 81 83 85 87 89 91 93 95 97 98 100 102 103 104 105 105 105 105 105 105 105 105
72 71 70 69 68 67 66 66 66 65 65 64 64 63 62 61 61 60 60 59 59 58 58 58 58 58 58 58 58 59 59 60 61 61 61 60 60 61 61 61 61 62 64 67 70 72 73 71 68 65 64 64 65 67 68 70 71 73 74 75 76 78 79 80 82 84 86 89 91 92 94 96 98 99 101 103 104 104 105 105 105 104 104 104 104 104
68 67 66 65 64 64 63 63 62 62 62 61 61 60 59 59 58 58 58 57 57 57 57 57 57 57 57 57 57 58 59 61 61 61 60 60 60 61 61 61 61 63 64 66 69 72 73 71 67 65 64 65 66 68 70 71 72 73 74 75 77 78 79 81 83 86 88 90 92 93 95 97 99 101 102 103 104 104 104 104 104 103 103 103 104 104
64 63 62 61 61 60 60 60 59 59 59 58 58 57 57 57 57 56 56 56 56 56 56 56 56 56 56 56 57 58 60 61 61 60 60 59 60 60 61 61 62 63 64 65 68 71 72 70 67 65 65 66 68 69 70 71 73 74 75 76 77 79 80 82 85 87 89 91 93 95 96 98 100 101 103 103 104 104 104 103 103 102 102 103 103 103
61 60 59 58 58 57 57 57 57 56 56 56 56 55 55 55 55 55 54 55 55 55 55 55 55 55 55 56 57 58 60 61 61 60 59 59 59 60 61 61 62 62 63 65 67 69 69 68 67 66 66 67 69 70 71 72 73 74 75 76 78 79 82 84 86 89 90 92 94 96 97 99 100 102 103 103 103 103 102 102 101 101 102 102 102 102
57 57 56 55 55 55 55 54 54 54 54 54 54 53 53 53 53 53 54 54 54 54 54 54 54 55 55 56 57 58 59 60 60 59 58 58 59 60 60 60 61 62 63 64 65 66 66 66 66 66 67 68 69 70 71 72 73 74 75 77 79 81 83 86 88 90 92 93 95 96 98 99 101 101 102 102 102 102 101 101 100 101 101 101 101 101
55 54 53 53 53 53 53 52 52 52 52 52 52 52 52 52 52 53 53 53 53 53 53 54 54 54 55 56 57 58 58 59 58 58 58 58 58 59 60 60 61 62 63 64 64 64 64 64 65 66 67 69 70 71 72 73 74 75 77 78 80 83 85 87 89 91 92 94 96 97 98 100 100 101 101 101 101 100 100 100 100 100 100 100 99 98
52 52 51 51 51 51 51 51 50 50 50 50 50 51 51 51 51 52 52 52 52 52 52 53 53 54 55 56 56 57 58 58 57 57 57 57 58 58 59 60 61 62 62 63 63 63 64 64 65 66 68 69 70 71 72 73 75 76 78 80 82 84 86 88 90 92 93 95 96 97 98 99 100 100 100 99 99 99 99 99 99 99 99 98 97 96
50 50 50 50 50 49 49 49 49 49 49 49 49 49 50 50 51 51 51 51 51 52 52 52 53 53 54 55 56 56 57 57 57 57 57 57 57 58 59 60 61 62 62 63 63 63 64 65 66 67 68 70 71 72 74 75 76 78 80 82 84 86 88 89 91 92 94 95 97 98 98 99 99 99 98 98 98 98 98 98 98 98 97 96 94 93
48 48 48 48 48 48 48 48 47 47 47 48 48 49 49 50 50 50 51 51 51 51 51 52 52 53 54 54 55 56 56 57 57 57 57 57 58 59 59 61 61 62 62 62 63 63 64 65 67 68 69 71 72 73 75 76 78 80 82 84 86 88 89 90 92 93 94 96 97 97 97 97 97 97 97 97 96 97 97 97 97 96 95 94 92 91
47 47 47 47 47 46 46 46 46 46 46 47 47 48 49 49 50 50 50 50 50 51 51 51 52 53 53 54 55 56 56 57 57 57 58 58 59 59 60 61 62 62 62 62 62 63 64 66 68 69 71 72 74 75 77 78 80 82 84 85 87 88 90 91 92 93 94 95 96 96 96 96 96 96 96 95 96 96 96 96 95 94 93 92 90 90
46 45 46 45 45 45 45 45 45 45 45 46 47 48 48 49 49 49 49 50 50 50 51 51 52 53 54 55 56 56 57 57 57 58 58 59 60 60 61 62 62 62 62 62 63 64 65 67 69 70 72 74 75 77 78 80 82 84 86 87 88 89 90 91 92 93 94 94 95 95 95 94 94 94 95 95 95 95 95 95 94 92 91 90 90 89
44 44 44 44 44 44 43 43 44 44 45 46 47 47 48 48 48 49 49 49 50 50 51 52 52 53 55 55 56 57 57 57 58 58 59 60 61 61 62 62 62 62 62 62 63 64 66 68 70 72 73 75 77 78 80 82 84 85 87 88 89 90 90 90 91 92 93 93 93 94 93 93 93 94 94 94 95 95 94 93 92 90 89 89 89 89
44 44 43 43 43 42 42 43 43 44 45 46 46 47 47 48 48 48 49 49 50 51 51 52 53 54 55 56 57 57 57 58 58 59 60 61 61 62 62 62 62 62 62 63 65 66 68 70 72 73 75 77 78 80 82 83 85 86 87 89 90 90 90 90 91 91 92 92 92 92 92 92 93 93 94 94 94 93 92 91 90 89 88 88 87 87
43 42 42 42 41 41 42 42 43 44 45 45 46 46 47 47 47 48 49 50 50 51 51 52 54 55 56 57 57 57 58 58 59 60 60 61 62 62 61 61 61 62 63 65 67 68 70 72 73 75 76 78 80 81 83 85 86 87 88 89 90 90 90 90 90 90 90 90 90 90 91 91 92 93 93 93 92 91 90 89 88 88 87 87 87 86
41 41 41 40 40 41 41 42 43 44 44 45 45 46 46 47 47 48 49 50 51 51 52 53 54 56 57 58 58 58 58 58 59 60 61 61 61 61 61 61 62 63 65 67 69 70 72 73 74 76 77 79 81 83 84 86 87 87 88 88 89 90 90 90 89 88 88 88 89 89 90 91 92 92 92 91 90 89 88 87 87 86 86 86 86 85
40 39 39 39 40 40 41 42 43 43 44 44 45 45 46 46 47 48 49 50 51 51 52 53 54 56 57 58 58 59 58 59 59 60 61 61 61 61 62 62 64 65 67 68 70 71 73 74 75 77 78 80 82 84 85 86 87 88 88 88 88 88 89 88 87 87 87 87 88 89 90 91 91 91 90 89 88 87 86 86 86 86 85 85 84 83
39 38 38 39 39 40 41 42 42 43 43 44 44 44 45 46 47 48 49 50 50 51 52 53 54 55 56 57 58 58 59 59 60 60 61 61 61 62 63 64 65 67 68 69 70 71 72 74 76 78 79 81 83 84 85 86 87 87 87 87 86 86 86 85 85 85 86 87 88 89 89 90 90 90 89 88 86 86 85 85 85 85 85 84 83 81
37 37 38 38 39 39 40 41 42 42 43 43 44 44 45 46 47 48 49 49 50 51 52 53 54 55 56 56 57 58 59 60 60 60 60 61 61 63 64 65 66 67 68 69 70 71 73 75 77 79 81 82 83 84 85 85 86 86 86 85 84 84 84 84 84 85 86 87 88 89 88 88 88 88 87 86 85 85 85 85 84 84 84 83 81 80
36 37 37 38 38 39 40 40 41 42 42 42 43 44 45 46 47 48 49 49 50 50 51 52 53 54 55 56 57 57 58 59 60 60 61 61 62 63 65 66 67 67 68 69 70 72 73 75 77 79 81 82 83 83 83 83 83 83 83 83 83 83 83 84 84 85 86 87 87 87 87 87 86 86 85 85 85 85 84 84 83 82 82 81 79 78
36 36 36 37 38 38 39 40 40 41 41 42 43 44 45 46 47 48 49 49 50 50 51 52 53 54 54 55 56 57 57 58 59 60 61 62 63 64 65 66 66 67 68 69 71 73 74 76 78 79 80 81 81 82 82 81 81 81 81 81 81 82 83 84 84 85 86 86 86 86 85 85 85 85 85 85 85 84 83 82 81 80 79 78 77 75
35 35 36 36 37 38 39 39 40 40 41 41 42 43 45 46 47 48 49 49 49 49 50 51 52 53 53 54 55 56 57 58 59 60 62 63 64 65 65 66 67 68 69 71 72 74 75 76 76 77 77 78 79 79 79 79 79 79 79 80 80 82 83 84 85 85 85 85 85 84 83 83 83 83 84 84 84 83 82 81 79 78 77 75 74 72
34 35 35 36 37 37 38 39 39 39 40 41 42 44 45 47 48 48 48 48 48 48 49 50 50 51 52 53 54 55 56 58 60 61 63 63 64 65 66 67 68 69 71 72 73 74 74 75 75 74 74 74 75 76 76 77 77 78 78 79 80 82 83 84 84 84 84 84 83 83 83 82 82 82 83 83 83 82 81 79 77 75 74 72 70 68
34 34 35 35 36 37 38 38 38 39 40 41 43 44 46 47 48 48 47 47 47 47 47 48 49 49 51 52 54 55 57 59 60 62 63 63 64 65 66 67 69 70 71 72 72 72 72 73 73 73 72 71 71 72 74 75 77 78 79 80 81 82 83 84 84 83 82 82 82 82 82 82 82 82 82 82 81 80 79 77 74 72 69 67 66 64
Wind_Direction
293 294 295 295 296 297 298 299 299 300 300 301 301 301 302 303 303 303 304 304 304 305 305 305 305 305 305 304 304 303 303 302 302 301 300 299 298 297 295 294 292 290 289 287 286 285 284 284 283 283 283 283 284 285 286 287 287 288 288 288 288 289 289 290 292 293 295 296 298 299 301 302 303 303 303 304 304 305 306 307 308 309 310 311 312 313
293 294 294 295 296 297 297 298 299 299 300 300 300 301 301 302 302 303 303 303 304 304 304 304 304 304 304 303 303 303 302 301 301 300 299 298 297 295 294 292 290 289 287 286 284 284 283 283 283 283 283 283 284 285 286 287 287 288 288 288 289 289 290 291 293 294 296 297 299 301 302 303 303 304 304 305 305 306 307 308 309 310 311 312 313 314
293 294 294 295 295 296 297 298 298 298 299 299 300 300 301 301 302 302 302 302 303 303 303 303 303 303 303 303 302 302 301 301 300 299 298 296 295 294 292 290 289 287 286 284 283 282 282 282 283 283 283 283 284 285 286 287 287 288 288 288 289 290 291 292 293 295 296 298 300 302 303 304 304 305 305 306 306 307 308 309 310 310 311 312 314 315
293 294 294 295 295 296 296 297 297 298 298 299 299 299 300 300 301 301 301 302 302 302 302 302 302 302 302 302 301 301 300 299 298 297 296 295 294 292 291 289 287 286 284 283 282 282 282 282 282 283 283 283 284 285 286 287 288 288 288 289 289 290 291 292 294 296 297 299 301 302 303 304 305 305 306 306 307 308 308 309 310 311 312 313 314 315
293 294 294 294 295 295 296 296 297 297 297 298 298 299 299 299 300 300 300 301 301 301 301 301 301 301 301 301 301 300 299 298 297 296 295 293 292 290 289 288 286 284 283 282 281 281 281 282 282 282 283 283 284 285 286 287 288 288 289 289 290 291 292 293 294 296 298 300 302 303 304 305 305 306 307 307 308 308 309 310 310 311 312 313 314 315
293 293 294 294 294 295 295 296 296 296 296 297 297 298 298 298 299 299 299 300 300 300 300 300 300 300 300 300 299 299 298 297 296 294 293 292 290 289 288 286 284 283 282 281 281 281 281 281 282 282 282 283 284 285 286 287 288 288 289 290 290 291 292 294 295 297 299 301 302 304 305 305 306 307 307 307 308 308 309 310 311 312 313 314 315 315
292 293 293 293 294 294 294 295 295 295 296 296 296 297 297 297 298 298 298 299 299 299 299 299 299 299 299 299 298 298 297 295 294 293 291 290 288 287 286 284 283 281 280 280 280 280 280 281 282 282 282 283 284 285 285 286 287 288 289 290 291 292 293 295 296 298 300 302 303 304 305 306 306 307 307 308 308 309 309 310 311 312 313 314 315 316
292 292 293 293 293 293 294 294 294 294 295 295 295 296 296 296 297 297 297 298 298 298 298 299 298 298 298 298 297 296 295 294 293 291 290 288 286 285 284 283 281 280 279 279 279 279 280 281 281 282 282 283 284 285 285 286 287 288 289 290 291 293 294 296 297 299 301 302 304 305 306 306 307 307 307 308 308 309 310 310 311 312 313 314 315 316
292 292 292 292 293 293 293 293 293 294 294 294 294 295 295 296 296 296 297 297 297 297 298 298 297 297 297 297 296 295 294 292 291 290 288 286 284 283 282 281 280 279 278 278 278 279 280 281 281 281 282 283 284 285 286 287 288 289 290 291 292 293 295 296 298 300 302 303 305 306 306 307 307 307 307 308 308 309 310 311 312 312 313 314 315 316
291 291 291 292 292 292 292 292 293 293 293 293 294 294 294 295 295 295 296 296 296 297 297 297 296 296 296 295 295 293 292 291 290 288 286 284 282 281 281 280 279 278 277 277 277 278 279 280 281 281 282 283 284 285 286 287 288 289 290 292 293 294 296 297 299 301 303 304 305 306 306 307 307 307 307 308 308 309 310 311 312 313 313 314 315 316
290 290 290 290 291 291 291 291 292 292 292 292 293 293 293 294 294 294 295 295 296 296 296 296 295 295 295 294 293 292 291 290 288 286 284 282 281 280 279 278 277 277 276 276 277 277 278 279 280 281 281 282 284 285 286 287 289 290 291 292 294 295 297 298 300 302 304 305 306 306 306 306 306 307 307 307 308 309 310 311 312 313 314 314 315 316
288 289 289 289 290 290 290 291 291 291 291 292 292 292 292 293 293 293 294 294 295 295 295 294 294 294 293 293 292 291 290 288 286 285 283 281 279 278 278 277 276 276 275 275 276 277 277 279 280 281 282 283 284 285 286 288 289 290 292 293 295 296 298 300 301 303 304 305 306 306 306 306 306 306 307 307 308 309 310 311 312 313 314 314 315 315
287 288 288 288 289 289 290 290 290 290 291 291 291 291 291 292 292 292 293 293 294 294 294 293 293 293 292 291 290 289 288 287 285 283 281 279 278 277 276 275 275 274 274 274 275 276 277 278 279 281 282 283 284 285 287 288 289 291 292 294 295 297 299 301 302 303 305 305 305 305 305 305 306 306 307 307 308 309 310 311 312 313 313 314 315 315
286 287 287 287 288 288 289 289 289 289 290 290 290 290 290 291 291 292 292 293 293 293 293 292 292 292 291 290 289 288 286 285 283 281 279 277 276 275 274 274 273 273 273 273 274 275 277 278 279 280 282 283 284 286 287 288 290 292 293 295 296 298 300 301 303 304 304 305 305 305 305 305 305 306 306 307 308 309 310 311 312 313 313 314 314 315
286 286 286 287 287 287 288 288 288 288 288 289 289 289 290 290 290 291 291 292 292 292 292 291 291 290 289 288 287 286 285 283 281 279 277 276 275 274 273 272 272 272 272 273 274 275 276 277 278 280 281 283 284 286 287 289 290 292 294 295 297 299 300 301 302 303 304 304 304 304 304 305 305 306 306 307 308 309 310 311 312 312 313 314 314 315
286 286 286 286 286 287 287 287 287 287 287 288 288 288 289 289 290 290 291 291 291 291 291 290 290 289 288 287 286 284 282 281 279 277 276 274 273 273 272 271 271 271 271 272 273 274 276 277 278 279 281 283 284 286 288 289 291 293 294 296 297 299 300 301 302 303 303 303 304 304 304 304 305 305 306 307 308 309 310 311 312 312 313 313 314 314
285 285 285 285 286 286 286 286 286 286 287 287 287 288 288 289 289 290 290 290 290 290 290 289 288 287 287 286 284 283 281 279 277 276 274 273 272 271 271 270 270 270 270 271 272 274 275 277 278 280 281 282 284 286 288 289 291 293 295 296 298 299 300 301 302 302 302 303 303 303 304 304 304 305 306 307 308 309 310 311 311 312 313 313 314 314
285 285 285 285 285 285 285 285 285 286 286 286 287 287 288 288 289 289 290 290 290 289 288 288 287 286 285 283 282 281 279 277 275 274 273 271 270 270 270 269 269 269 270 271 272 273 275 276 278 280 281 282 284 286 288 290 292 293 295 296 298 299 300 300 301 301 302 302 303 303 303 304 304 305 306 307 308 309 310 310 311 312 312 313 313 314
284 284 284 284 284 284 284 285 285 285 285 286 286 287 287 288 288 289 289 289 288 288 287 286 285 284 283 282 280 279 277 275 274 272 271 270 269 269 268 268 268 268 269 270 271 273 274 276 278 279 281 282 284 286 288 290 292 294 295 297 298 299 299 300 300 301 301 302 302 302 303 303 304 305 306 307 308 309 309 310 311 311 312 313 313 313
284 284 284 284 284 284 284 284 284 284 285 285 286 286 286 287 287 288 287 287 287 286 285 284 283 282 281 280 279 277 276 274 272 271 269 268 268 268 267 267 267 267 268 269 270 272 274 275 277 278 280 282 284 286 288 290 292 294 295 297 297 298 299 299 300 300 301 301 302 302 302 303 304 305 306 307 308 308 309 310 311 311 312 312 313 313
283 283 283 283 283 283 283 284 284 284 284 285 285 285 286 286 286 286 286 285 285 284 283 282 281 280 279 278 277 276 274 272 270 269 268 267 267 266 266 266 266 266 267 268 270 272 273 274 276 278 279 282 284 286 289 291 292 294 295 296 297 298 298 299 299 300 301 301 301 301 302 303 304 305 306 307 308 308 309 310 310 311 312 312 312 312
283 283 283 283 283 283 283 283 283 284 284 284 285 285 285 285 285 284 284 284 283 282 281 280 279 278 277 276 275 274 272 270 268 267 267 266 266 265 265 265 265 265 266 268 270 271 273 274 275 277 279 282 284 286 289 290 292 294 295 296 296 297 298 298 299 300 300 300 301 301 302 303 304 305 306 306 307 308 309 309 310 311 311 312 312 312
282 282 282 282 282 282 283 283 283 283 283 283 284 284 284 283 283 282 282 282 281 280 279 278 277 276 275 274 273 272 270 268 266 265 264 264 264 264 265 264 264 264 265 267 269 271 272 274 275 277 279 282 284 287 289 291 292 294 294 295 296 296 297 298 298 299 300 300 300 301 302 303 304 305 306 306 307 308 308 309 310 311 311 311 311 311
282 282 282 282 282 282 282 282 282 282 283 283 283 282 282 282 281 281 281 280 279 278 277 276 275 274 273 272 271 269 267 265 264 263 262 262 263 263 263 264 263 264 265 267 269 271 272 273 275 277 280 282 285 287 289 291 292 293 294 294 295 296 296 297 298 299 299 300 300 301 302 303 304 304 305 306 307 308 308 309 310 310 310 311 311 311
282 282 281 281 281 281 281 282 282 282 282 281 281 281 280 280 280 280 280 279 277 276 275 274 273 272 271 270 268 267 265 264 262 261 260 261 261 262 262 263 263 263 265 267 269 270 272 273 275 278 280 283 285 287 289 290 291 292 293 293 294 295 296 297 298 298 299 299 300 301 302 303 303 304 305 306 307 307 308 309 309 310 310 310 310 310
281 281 281 281 281 281 281 281 281 281 280 280 279 279 279 279 279 278 278 277 276 274 273 272 271 270 270 268 267 265 263 262 260 259 259 259 260 261 261 262 262 263 264 266 268 270 271 273 275 278 280 283 285 287 289 290 290 291 292 293 294 295 296 297 297 298 299 299 300 301 302 302 303 304 305 306 306 307 308 308 309 309 309 309 309 310
281 280 280 280 280 280 280 280 280 279 279 278 278 277 277 277 277 277 276 275 274 273 271 270 270 269 268 266 264 263 261 260 259 258 258 258 259 260 261 262 262 263 264 266 268 270 271 273 276 278 281 283 286 287 288 289 290 290 291 292 293 295 296 296 297 298 298 299 300 301 301 302 303 304 305 305 306 307 308 308 308 309 309 309 309 309
280 280 279 279 279 279 279 278 278 278 277 277 276 276 276 276 275 275 274 273 272 271 270 269 268 267 266 264 262 261 259 258 257 257 257 257 258 259 260 261 262 263 264 266 268 270 272 274 277 279 282 284 286 286 287 288 289 290 291 293 294 295 296 296 297 298 298 299 300 300 301 302 303 304 304 305 306 307 307 308 308 308 308 308 308 309
279 279 279 279 278 278 277 277 277 276 276 275 275 275 274 274 273 273 272 271 270 269 268 267 266 265 263 262 261 259 258 256 256 257 257 257 257 258 259 260 262 263 265 267 269 271 273 276 278 281 283 285 285 286 287 288 289 290 292 293 294 295 296 297 297 298 298 299 299 300 301 302 303 303 304 305 306 306 307 307 307 308 308 308 308 309
278 278 278 278 277 276 276 275 275 275 274 274 273 273 273 272 271 271 270 269 268 267 266 265 264 263 261 260 258 257 256 255 255 256 256 256 257 258 259 260 261 263 265 268 270 272 275 277 280 283 284 285 285 286 287 288 290 291 292 293 294 295 296 296 297 297 298 298 299 300 301 302 303 303 304 305 305 306 306 307 307 307 308 308 308 309
277 277 277 276 276 275 274 274 273 273 273 273 272 271 271 270 269 268 268 267 265 264 264 263 262 260 259 257 256 255 254 254 255 256 256 256 257 258 259 260 261 263 266 268 271 274 276 280 282 284 285 286 286 287 288 290 291 292 293 294 294 295 295 296 296 296 297 298 299 300 301 302 302 303 304 305 305 305 306 306 307 307 307 308 308 309
277 276 276 275 274 274 273 272 272 271 271 271 270 270 269 268 267 266 266 264 263 263 262 261 260 258 257 255 254 254 254 255 255 256 256 256 257 258 259 260 262 264 267 269 271 274 278 281 283 285 286 286 287 288 289 290 291 292 293 294 294 294 294 295 295 296 297 298 299 300 301 302 302 303 304 304 305 305 305 306 306 307 307 308 308 309
276 275 274 274 273 272 271 271 270 270 270 269 268 268 267 266 265 264 264 263 262 261 260 259 258 256 255 254 253 253 253 254 255 256 257 257 257 259 260 261 263 265 267 270 272 275 278 281 283 285 286 286 287 288 289 290 291 292 292 293 293 293 293 294 294 295 296 297 299 300 301 301 302 303 303 304 304 305 305 305 306 307 307 308 309 309
275 274 273 272 271 271 270 269 269 268 268 267 266 266 265 264 263 262 262 261 260 259 258 257 256 255 254 253 252 252 252 253 255 256 256 257 258 259 261 262 264 266 268 270 273 276 278 280 282 284 285 286 287 288 289 290 290 291 291 291 292 292 292 293 294 295 296 297 298 299 300 301 302 302 303 303 304 304 305 305 306 307 307 308 309 309
274 273 272 271 270 269 268 268 267 267 266 265 264 263 262 262 261 260 260 259 258 257 256 255 254 253 252 252 252 251 251 253 254 256 256 257 258 260 261 263 264 266 268 270 273 276 278 280 281 283 284 286 287 287 288 289 289 289 290 290 290 291 292 293 294 295 296 298 299 300 301 301 302 302 302 303 303 304 305 305 306 307 308 308 309 309
272 272 271 270 269 268 267 267 266 265 264 263 262 261 261 260 259 258 258 257 256 255 254 253 253 252 251 251 250 250 251 253 254 255 256 257 258 260 261 263 264 266 268 271 273 275 278 279 281 282 284 285 286 286 287 287 287 288 288 289 290 291 292 293 294 295 297 298 299 300 300 301 301 302 302 303 303 304 305 305 306 307 308 308 309 310
271 270 269 269 268 267 266 265 264 263 262 261 260 259 258 258 257 257 256 255 254 253 252 251 250 250 250 249 249 250 251 253 254 255 256 257 258 259 261 262 264 266 268 271 273 275 277 279 281 282 283 283 284 285 285 286 286 287 288 288 289 291 292 293 295 296 297 298 299 300 300 301 301 301 302 302 303 304 305 306 307 307 308 309 309 310
270 269 268 267 267 266 265 264 263 262 260 259 258 257 257 256 256 255 254 253 252 251 250 249 248 248 248 248 248 249 250 252 253 254 255 257 258 259 261 262 264 267 269 271 273 276 277 279 280 281 282 282 282 283 284 285 285 286 287 288 290 291 292 294 295 297 298 298 299 299 300 300 301 301 302 303 304 305 305 306 307 308 308 309 310 310
268 268 267 266 265 264 263 262 261 260 259 258 257 256 255 255 254 253 252 251 250 249 248 247 247 246 246 247 247 248 249 251 252 253 255 256 258 259 261 263 265 267 270 272 274 276 277 278 279 280 280 281 281 282 283 284 285 286 287 288 290 291 293 295 296 297 298 298 299 299 300 300 301 301 302 303 304 305 306 307 307 308 309 309 310 310
267 266 265 264 263 263 262 261 259 258 257 256 255 255 254 254 253 252 251 250 249 248 247 246 245 245 246 246 247 248 249 250 251 253 255 256 258 260 261 264 266 268 271 273 275 276 277 277 278 279 279 280 281 282 283 284 285 286 287 289 290 292 294 295 297 297 298 298 299 299 300 300 301 302 303 304 305 306 306 307 308 308 309 310 310 310
265 264 263 263 262 261 260 259 258 256 256 255 254 253 253 252 251 250 249 248 247 246 245 245 244 244 245 245 246 247 249 250 252 253 255 256 258 260 262 265 267 269 271 273 274 275 276 276 277 278 279 280 281 282 283 284 286 287 288 290 291 293 295 296 297 297 298 298 299 299 300 301 302 303 303 304 305 306 307 307 308 309 309 310 310 310
264 263 262 262 261 259 258 257 256 255 254 254 253 252 252 251 249 248 247 247 246 245 244 243 243 243 243 244 246 247 248 250 252 253 255 257 259 261 264 266 268 270 271 272 273 274 275 276 277 278 279 281 282 283 284 285 287 288 290 291 293 294 295 296 297 297 297 298 299 300 301 301 302 303 304 305 306 306 307 308 308 309 309 310 310 310
263 262 261 260 259 258 257 256 255 254 253 253 252 251 250 249 248 247 246 246 245 244 244 243 242 242 243 243 245 247 249 250 252 254 256 258 260 262 265 266 268 269 271 272 272 273 275 276 277 279 280 282 283 284 285 287 288 290 291 293 294 295 295 296 297 297 298 299 299 300 301 302 303 304 304 305 306 307 308 308 309 309 310 310 310 310
262 261 260 259 258 257 255 255 254 253 253 252 251 250 248 247 246 245 245 245 245 244 243 243 243 243 243 244 245 247 249 251 253 255 257 259 261 263 265 267 268 269 270 271 273 274 276 277 279 280 282 283 284 285 286 288 290 291 293 294 295 295 295 296 297 298 299 299 300 301 302 303 304 304 305 306 307 308 308 309 309 310 310 310 310 310
260 259 258 257 256 255 254 254 253 252 252 251 249 248 246 245 244 244 244 244 243 243 242 242 243 243 244 245 246 247 249 252 254 256 258 261 262 264 266 267 268 270 271 273 274 276 277 279 280 281 282 283 284 286 288 289 291 292 293 294 295 295 296 297 298 299 299 300 301 302 303 303 304 305 306 307 307 308 309 309 310 310 310 310 311 310
258 257 256 255 254 254 253 253 252 251 251 249 248 246 244 243 243 243 243 243 243 242 242 242 243 244 245 246 247 248 250 252 254 257 259 261 263 265 266 268 269 271 272 274 276 278 278 279 280 281 283 285 286 288 289 291 292 293 294 295 295 296 297 298 299 300 301 301 302 303 304 304 305 306 306 307 308 309 309 310 310 310 311 311 310 310
257 256 255 254 254 253 252 252 251 250 249 247 245 243 242 241 241 241 242 242 242 242 242 243 243 244 246 247 248 250 251 253 255 257 259 262 263 265 267 269 270 272 274 276 277 278 279 280 281 283 284 286 288 289 291 292 293 293 294 295 296 297 298 299 300 301 302 302 303 303 304 305 306 307 308 308 309 309 309 310 310 310 310 310 310 310
256 255 254 253 252 252 251 250 249 248 246 245 243 241 240 239 239 240 241 241 242 242 242 243 243 245 246 248 249 250 252 254 256 258 260 262 264 266 268 270 272 273 275 276 278 279 280 281 283 285 286 288 289 290 292 293 293 294 295 296 297 298 299 300 301 302 302 303 304 304 305 306 307 308 308 309 309 309 310 310 310 310 310 310 310 309
254 253 252 252 251 250 249 248 247 245 244 242 240 238 237 238 238 239 240 241 242 242 242 243 244 246 247 249 250 252 253 255 257 258 260 262 265 267 269 271 273 274 276 277 279 280 282 284 285 287 288 289 290 291 292 293 294 295 296 297 298 299 300 301 302 303 303 304 305 305 306 307 308 308 309 309 309 309 309 310 310 310 309 309 309 309
253 252 251 250 249 248 247 246 244 242 240 238 237 235 235 236 238 239 241 241 242 243 243 244 246 248 250 251 252 253 255 256 258 259 261 264 266 268 270 272 274 275 277 279 281 282 284 285 287 288 289 290 291 292 293 294 295 296 297 299 300 301 301 302 303 303 304 305 306 306 307 308 308 308 309 309 309 309 309 309 309 309 309 308 308 308
251 251 249 248 247 246 245 243 241 239 237 235 234 234 234 235 237 239 240 241 242 243 244 246 248 249 251 252 254 255 256 257 259 261 263 265 268 270 272 274 276 278 279 281 283 284 285 287 288 290 291 292 293 293 294 295 297 298 299 300 301 302 302 303 304 304 305 306 306 307 308 308 308 308 309 309 309 309 309 308 308 307 307 308 307 307
Height
10457 10453 10451 10448 10445 10442 10438 10437 10436 10433 10430 10427 10424 10422 10419 10417 10413 10412 10409 10406 10403 10400 10398 10395 10393 10391 10388 10386 10383 10380 10377 10375 10373 10371 10369 10365 10361 10358 10357 10355 10352 10350 10348 10347 10345 10343 10342 10342 10341 10340 10339 10338 10338 10338 10337 10337 10335 10334 10332 10332 10330 10328 10327 10326 10324 10323 10322 10320 10319 10317 10315 10313 10312 10309 10307 10305 10303 10300 10298 10296 10293 10290 10287 10284 10281 10277
10449 10446 10443 10442 10438 10435 10431 10429 10428 10426 10422 10419 10417 10414 10412 10409 10407 10404 10402 10398 10396 10393 10391 10389 10387 10384 10382 10378 10376 10373 10370 10368 10367 10365 10363 10360 10357 10353 10351 10349 10347 10345 10343 10341 10339 10338 10337 10335 10335 10333 10333 10333 10333 10332 10332 10331 10330 10328 10327 10325 10325 10323 10322 10320 10319 10317 10316 10315 10313 10312 10310 10307 10305 10303 10301 10298 10297 10294 10292 10289 10287 10283 10280 10277 10274 10270
10441 10438 10435 10433 10432 10428 10425 10423 10420 10417 10415 10412 10410 10407 10404 10402 10399 10397 10394 10392 10389 10387 10385 10383 10381 10378 10374 10372 10370 10367 10364 10362 10360 10358 10357 10355 10352 10348 10345 10343 10341 10339 10337 10335 10334 10332 10331 10330 10329 10328 10327 10327 10327 10327 10327 10325 10324 10323 10322 10320 10319 10318 10316 10315 10313 10312 10310 10309 10307 10305 10303 10302 10299 10297 10295 10292 10290 10288 10285 10283 10280 10277 10274 10271 10267 10264
10432 10429 10425 10424 10423 10421 10419 10417 10413 10410 10407 10405 10402 10400 10397 10395 10392 10390 10387 10385 10382 10380 10378 10376 10374 10372 10367 10365 10363 10360 10358 10355 10353 10351 10350 10348 10346 10343 10341 10338 10335 10333 10331 10330 10328 10327 10325 10325 10323 10322 10322 10322 10322 10321 10320 10320 10318 10317 10316 10315 10313 10312 10311 10309 10308 10307 10305 10303 10302 10300 10298 10295 10293 10291 10288 10286 10284 10282 10279 10277 10273 10270 10267 10264 10260 10257
10423 10421 10417 10415 10414 10413 10412 10409 10406 10403 10400 10397 10395 10393 10390 10388 10385 10383 10380 10378 10375 10373 10371 10369 10367 10365 10362 10358 10357 10354 10352 10349 10347 10345 10343 10341 10338 10337 10335 10333 10331 10328 10326 10323 10321 10320 10319 10318 10317 10317 10317 10317 10316 10315 10314 10313 10312 10311 10310 10309 10308 10307 10305 10303 10302 10301 10300 10298 10296 10293 10292 10289 10287 10285 10282 10280 10278 10275 10273 10270 10267 10264 10261 10257 10254 10250
10415 10413 10411 10408 10406 10405 10403 10402 10398 10395 10392 10390 10388 10386 10384 10382 10378 10376 10373 10371 10368 10367 10365 10362 10360 10358 10355 10353 10350 10348 10345 10343 10341 10339 10338 10334 10332 10329 10328 10327 10326 10323 10320 10317 10315 10314 10313 10312 10311 10310 10310 10310 10310 10309 10308 10307 10307 10305 10304 10303 10302 10301 10299 10298 10297 10295 10293 10292 10290 10288 10285 10283 10281 10278 10277 10274 10272 10269 10266 10263 10260 10257 10254 10251 10247 10244
10405 10405 10403 10401 10398 10396 10395 10393 10392 10388 10386 10383 10380 10378 10377 10374 10372 10369 10367 10364 10362 10360 10358 10355 10353 10352 10349 10347 10344 10342 10339 10337 10335 10333 10331 10328 10325 10323 10322 10320 10318 10316 10313 10312 10311 10310 10308 10307 10305 10304 10303 10303 10303 10303 10303 10302 10301 10300 10299 10298 10297 10295 10294 10292 10291 10290 10288 10286 10284 10282 10280 10277 10275 10273 10270 10268 10265 10263 10260 10257 10254 10251 10248 10244 10241 10238
10395 10395 10395 10393 10390 10388 10386 10385 10383 10382 10380 10378 10373 10370 10368 10366 10364 10362 10359 10357 10355 10353 10351 10348 10347 10344 10342 10340 10337 10335 10333 10332 10329 10327 10324 10322 10320 10317 10316 10314 10312 10310 10307 10307 10307 10306 10303 10302 10300 10298 10297 10297 10297 10297 10297 10296 10295 10294 10293 10293 10292 10290 10288 10287 10285 10284 10282 10280 10278 10276 10273 10271 10269 10267 10264 10262 10259 10257 10253 10251 10248 10245 10241 10238 10235 10231
10388 10387 10385 10383 10382 10380 10377 10375 10373 10372 10372 10372 10368 10363 10360 10358 10355 10353 10352 10350 10348 10346 10344 10342 10339 10337 10335 10333 10330 10328 10327 10325 10322 10320 10317 10316 10314 10312 10310 10308 10307 10304 10302 10303 10302 10300 10298 10297 10294 10292 10292 10292 10292 10292 10292 10290 10290 10288 10288 10287 10286 10285 10283 10282 10280 10278 10277 10275 10272 10270 10268 10265 10263 10261 10258 10255 10253 10250 10247 10245 10242 10238 10235 10232 10228 10225
10380 10378 10377 10375 10373 10371 10369 10368 10365 10363 10362 10363 10361 10358 10354 10351 10348 10346 10344 10342 10340 10339 10337 10334 10332 10330 10327 10325 10323 10322 10320 10317 10315 10313 10312 10310 10307 10306 10304 10303 10301 10299 10297 10297 10297 10295 10292 10290 10288 10287 10286 10287 10287 10287 10286 10285 10284 10283 10282 10282 10280 10279 10278 10276 10275 10273 10271 10268 10267 10264 10262 10260 10257 10255 10252 10250 10247 10244 10241 10238 10235 10232 10228 10225 10222 10218
10372 10370 10368 10367 10365 10363 10361 10359 10357 10355 10353 10353 10352 10348 10346 10343 10342 10340 10337 10335 10333 10332 10329 10327 10325 10323 10320 10318 10316 10315 10313 10312 10309 10307 10306 10304 10302 10300 10298 10297 10296 10294 10292 10291 10290 10289 10287 10285 10283 10282 10281 10282 10282 10282 10280 10279 10278 10278 10277 10276 10275 10273 10272 10270 10268 10267 10265 10263 10260 10258 10256 10254 10252 10249 10247 10243 10241 10238 10235 10232 10228 10225 10222 10218 10215 10212
10365 10362 10360 10358 10358 10357 10355 10352 10348 10346 10344 10344 10342 10339 10337 10335 10334 10333 10331 10328 10327 10325 10322 10319 10317 10315 10313 10311 10309 10307 10306 10305 10303 10300 10300 10298 10297 10295 10293 10292 10291 10289 10287 10285 10284 10283 10282 10280 10278 10277 10277 10277 10277 10276 10275 10273 10273 10272 10272 10270 10268 10267 10266 10264 10263 10261 10259 10257 10255 10253 10250 10248 10246 10243 10240 10238 10235 10232 10229 10226 10223 10219 10216 10212 10209 10206
10358 10355 10353 10350 10349 10349 10349 10347 10342 10338 10335 10333 10332 10330 10328 10327 10326 10325 10323 10322 10320 10318 10315 10313 10310 10308 10306 10304 10302 10300 10299 10298 10297 10296 10295 10292 10290 10289 10288 10287 10285 10283 10281 10279 10278 10277 10276 10275 10273 10272 10272 10272 10271 10270 10269 10268 10268 10267 10266 10265 10263 10262 10260 10258 10257 10255 10253 10251 10249 10247 10245 10242 10240 10237 10235 10232 10229 10226 10223 10220 10217 10213 10210 10207 10203 10200
10350 10347 10345 10342 10340 10339 10340 10340 10337 10331 10327 10325 10323 10321 10319 10318 10318 10317 10316 10315 10313 10311 10308 10306 10303 10301 10298 10297 10295 10293 10293 10291 10290 10289 10288 10285 10283 10284 10284 10283 10281 10278 10277 10275 10273 10272 10270 10269 10268 10267 10266 10266 10265 10264 10264 10263 10263 10262 10260 10259 10257 10256 10255 10253 10251 10249 10247 10245 10243 10242 10239 10237 10234 10231 10228 10226 10223 10220 10217 10214 10211 10207 10204 10200 10197 10193
10341 10339 10337 10333 10331 10330 10330 10331 10328 10323 10318 10317 10315 10313 10312 10310 10310 10309 10308 10307 10305 10304 10302 10299 10296 10293 10292 10290 10289 10288 10286 10285 10283 10282 10280 10278 10277 10278 10280 10278 10276 10273 10272 10270 10268 10267 10265 10264 10262 10261 10260 10260 10260 10259 10258 10258 10257 10257 10255 10253 10252 10250 10249 10247 10245 10244 10242 10240 10238 10235 10233 10230 10228 10225 10223 10220 10217 10214 10212 10208 10205 10202 10198 10195 10192 10188
10332 10331 10328 10325 10323 10321 10320 10320 10319 10317 10313 10310 10308 10306 10305 10302 10301 10300 10300 10299 10298 10297 10295 10292 10289 10287 10285 10283 10283 10282 10280 10278 10276 10275 10274 10272 10271 10272 10274 10273 10271 10268 10266 10265 10263 10262 10260 10258 10257 10256 10255 10255 10254 10254 10253 10253 10252 10251 10250 10248 10247 10245 10243 10242 10240 10238 10237 10235 10232 10230 10227 10225 10222 10219 10217 10214 10212 10208 10205 10202 10199 10196 10192 10189 10185 10182
10322 10320 10318 10316 10314 10312 10310 10309 10309 10308 10307 10305 10302 10298 10296 10294 10293 10292 10292 10291 10290 10290 10287 10286 10285 10282 10278 10277 10275 10275 10274 10273 10270 10268 10268 10267 10265 10265 10267 10268 10265 10262 10261 10260 10259 10257 10255 10253 10252 10251 10250 10250 10250 10250 10249 10248 10247 10246 10244 10243 10242 10240 10238 10237 10235 10233 10231 10229 10227 10224 10222 10219 10217 10213 10211 10208 10205 10203 10200 10197 10193 10190 10187 10183 10180 10177
10312 10310 10308 10307 10304 10302 10301 10300 10298 10297 10297 10297 10294 10291 10288 10287 10286 10285 10284 10283 10283 10282 10279 10278 10277 10275 10274 10271 10268 10268 10268 10267 10265 10263 10262 10261 10260 10260 10261 10262 10260 10257 10256 10255 10254 10252 10250 10248 10247 10246 10245 10245 10245 10245 10244 10243 10242 10241 10239 10238 10237 10235 10233 10232 10230 10227 10225 10223 10221 10218 10216 10213 10211 10208 10205 10203 10200 10197 10194 10191 10187 10184 10181 10178 10174 10171
10301 10300 10299 10297 10295 10293 10293 10292 10290 10288 10288 10287 10285 10284 10282 10279 10278 10278 10277 10276 10275 10274 10272 10270 10268 10267 10267 10265 10262 10262 10263 10263 10261 10258 10257 10255 10255 10254 10255 10256 10255 10252 10252 10250 10249 10248 10246 10243 10242 10241 10241 10240 10240 10240 10239 10238 10237 10236 10234 10233 10232 10230 10228 10226 10224 10222 10220 10218 10215 10213 10210 10208 10205 10202 10200 10197 10194 10191 10188 10185 10182 10178 10175 10172 10168 10165
10291 10290 10288 10287 10286 10284 10282 10282 10282 10282 10280 10278 10278 10277 10275 10272 10271 10270 10268 10268 10267 10266 10264 10263 10261 10259 10258 10258 10257 10256 10258 10258 10258 10255 10252 10251 10250 10249 10250 10252 10250 10248 10247 10245 10244 10243 10242 10239 10237 10237 10237 10236 10235 10235 10234 10233 10232 10231 10230 10228 10227 10225 10223 10220 10218 10217 10215 10212 10210 10207 10205 10202 10200 10197 10194 10191 10188 10185 10182 10179 10176 10173 10169 10166 10162 10158
10281 10279 10278 10278 10277 10275 10272 10272 10272 10273 10273 10272 10270 10268 10265 10263 10262 10262 10260 10260 10260 10258 10257 10256 10254 10252 10252 10252 10251 10250 10251 10253 10253 10250 10247 10247 10245 10244 10245 10246 10245 10243 10242 10240 10238 10238 10237 10234 10233 10232 10232 10232 10231 10230 10230 10229 10228 10227 10225 10223 10222 10220 10217 10215 10213 10211 10209 10207 10205 10202 10199 10197 10193 10191 10188 10185 10182 10179 10176 10173 10170 10167 10163 10160 10156 10152
10270 10269 10269 10269 10268 10266 10264 10263 10263 10263 10264 10264 10263 10259 10256 10255 10254 10253 10253 10253 10253 10252 10250 10248 10247 10247 10247 10247 10245 10243 10245 10247 10246 10245 10243 10242 10240 10238 10240 10242 10241 10239 10237 10235 10233 10232 10231 10229 10228 10227 10227 10227 10227 10227 10226 10225 10223 10222 10220 10218 10217 10214 10212 10210 10208 10206 10204 10202 10199 10196 10193 10190 10188 10185 10182 10180 10177 10173 10170 10167 10164 10161 10157 10154 10150 10146
10262 10261 10260 10259 10258 10256 10255 10255 10255 10255 10255 10255 10253 10251 10248 10248 10247 10246 10246 10246 10245 10245 10243 10242 10242 10242 10242 10240 10240 10239 10240 10240 10240 10239 10240 10237 10234 10233 10235 10237 10237 10235 10232 10230 10229 10227 10225 10223 10223 10223 10223 10223 10223 10222 10222 10220 10219 10218 10216 10213 10212 10209 10207 10205 10203 10201 10198 10196 10193 10190 10188 10185 10182 10180 10177 10173 10171 10168 10165 10162 10158 10155 10152 10148 10143 10140
10253 10252 10251 10250 10248 10247 10247 10246 10246 10246 10245 10245 10245 10243 10241 10241 10240 10240 10240 10240 10240 10238 10237 10237 10236 10235 10235 10234 10234 10234 10233 10235 10235 10235 10234 10232 10229 10228 10230 10232 10232 10230 10228 10226 10224 10222 10219 10218 10217 10218 10219 10219 10219 10218 10217 10216 10215 10213 10211 10209 10207 10205 10202 10200 10198 10196 10193 10191 10188 10185 10182 10179 10177 10174 10171 10168 10165 10162 10159 10156 10153 10149 10145 10142 10138 10133
10243 10242 10242 10241 10240 10238 10238 10238 10237 10237 10237 10237 10237 10236 10234 10235 10235 10235 10235 10235 10233 10232 10231 10230 10230 10228 10228 10228 10229 10229 10228 10228 10230 10231 10229 10227 10225 10224 10225 10227 10228 10227 10223 10220 10218 10217 10214 10213 10213 10214 10215 10215 10215 10215 10213 10212 10210 10208 10207 10204 10202 10200 10197 10195 10193 10191 10188 10185 10182 10180 10177 10174 10171 10168 10165 10163 10160 10157 10154 10151 10147 10143 10140 10136 10132 10127
10233 10233 10233 10232 10232 10231 10230 10230 10229 10229 10229 10230 10231 10230 10228 10229 10229 10228 10228 10227 10226 10225 10225 10224 10223 10222 10222 10224 10224 10223 10222 10223 10225 10225 10225 10223 10222 10220 10220 10222 10223 10222 10218 10215 10213 10211 10209 10208 10209 10211 10212 10212 10212 10211 10209 10207 10205 10203 10202 10199 10197 10195 10192 10190 10188 10185 10183 10180 10177 10174 10172 10168 10166 10163 10160 10157 10154 10152 10148 10145 10142 10138 10134 10130 10126 10122
10225 10225 10225 10224 10223 10223 10223 10222 10222 10222 10222 10223 10224 10224 10223 10223 10222 10221 10219 10218 10218 10219 10219 10218 10217 10217 10217 10218 10218 10218 10218 10218 10219 10219 10219 10220 10218 10216 10215 10217 10217 10217 10213 10210 10207 10205 10203 10204 10205 10207 10208 10208 10207 10207 10205 10203 10201 10198 10197 10194 10192 10190 10188 10185 10183 10180 10177 10174 10172 10168 10166 10163 10160 10157 10155 10152 10148 10146 10143 10140 10136 10132 10128 10124 10120 10115
10217 10217 10217 10217 10216 10216 10215 10215 10215 10215 10215 10216 10217 10217 10217 10217 10215 10213 10212 10212 10213 10213 10213 10213 10212 10212 10212 10212 10212 10213 10213 10214 10213 10213 10214 10215 10214 10212 10210 10212 10212 10211 10208 10205 10202 10199 10198 10200 10202 10203 10204 10203 10203 10202 10200 10198 10196 10193 10192 10189 10187 10185 10182 10180 10177 10175 10172 10169 10166 10163 10161 10158 10155 10152 10149 10146 10143 10140 10137 10133 10130 10127 10122 10118 10113 10109
10208 10208 10209 10209 10209 10208 10208 10208 10208 10208 10208 10210 10211 10210 10209 10209 10208 10207 10205 10207 10208 10208 10207 10207 10207 10207 10207 10207 10208 10208 10209 10208 10208 10208 10210 10212 10210 10207 10207 10208 10207 10205 10203 10200 10197 10193 10193 10195 10198 10200 10200 10199 10198 10196 10194 10192 10190 10188 10186 10184 10182 10180 10177 10175 10172 10170 10167 10163 10161 10158 10155 10153 10150 10147 10143 10140 10137 10134 10131 10128 10124 10120 10117 10112 10107 10103
10201 10202 10202 10202 10202 10202 10202 10202 10202 10202 10202 10203 10204 10204 10202 10202 10201 10200 10201 10202 10203 10203 10202 10202 10202 10202 10202 10203 10203 10203 10203 10202 10202 10203 10206 10207 10205 10202 10202 10203 10201 10199 10198 10196 10193 10190 10188 10190 10194 10196 10195 10193 10192 10190 10188 10187 10185 10183 10181 10179 10177 10175 10173 10170 10167 10164 10162 10158 10156 10153 10150 10147 10144 10141 10138 10135 10131 10128 10125 10122 10118 10115 10110 10106 10101 10096
10194 10195 10195 10195 10195 10195 10195 10195 10195 10196 10196 10196 10197 10197 10196 10196 10195 10195 10196 10197 10197 10197 10197 10197 10197 10197 10197 10198 10198 10198 10196 10196 10197 10200 10202 10202 10200 10197 10198 10198 10196 10193 10193 10192 10190 10187 10185 10186 10188 10190 10190 10188 10186 10184 10183 10182 10180 10178 10176 10174 10172 10170 10168 10165 10162 10159 10157 10154 10151 10148 10145 10142 10139 10136 10132 10129 10125 10122 10119 10116 10112 10109 10105 10100 10095 10090
10188 10188 10188 10189 10189 10189 10190 10190 10190 10190 10190 10190 10190 10191 10191 10190 10190 10191 10191 10191 10192 10192 10193 10192 10192 10192 10192 10193 10193 10192 10192 10193 10193 10195 10197 10197 10195 10193 10193 10193 10192 10189 10188 10188 10187 10185 10184 10183 10183 10184 10184 10183 10180 10179 10178 10177 10175 10173 10171 10169 10167 10165 10163 10160 10157 10154 10152 10149 10147 10143 10141 10138 10134 10131 10127 10123 10120 10117 10113 10110 10107 10103 10099 10095 10090 10085
10182 10182 10183 10183 10183 10183 10183 10184 10184 10184 10184 10185 10185 10185 10185 10185 10185 10185 10185 10186 10187 10187 10187 10187 10187 10187 10187 10188 10188 10188 10188 10190 10190 10190 10192 10192 10190 10188 10188 10188 10187 10185 10183 10183 10183 10183 10183 10182 10180 10179 10178 10177 10176 10174 10173 10172 10170 10168 10167 10165 10162 10160 10158 10155 10153 10150 10147 10145 10142 10139 10136 10133 10129 10125 10122 10118 10115 10111 10108 10105 10102 10098 10094 10090 10085 10080
10175 10177 10177 10177 10178 10178 10178 10178 10178 10179 10179 10179 10180 10180 10180 10180 10180 10180 10180 10181 10182 10182 10182 10182 10182 10182 10183 10183 10184 10185 10185 10185 10185 10185 10187 10187 10186 10184 10183 10183 10182 10181 10180 10180 10179 10180 10180 10178 10177 10175 10173 10172 10171 10170 10169 10167 10166 10164 10163 10161 10158 10155 10153 10151 10148 10145 10143 10140 10137 10134 10131 10128 10124 10120 10117 10113 10109 10106 10102 10099 10096 10092 10088 10084 10080 10075
10170 10171 10171 10172 10172 10172 10173 10173 10173 10174 10174 10175 10175 10175 10175 10175 10175 10175 10176 10177 10177 10177 10178 10178 10178 10178 10179 10180 10180 10180 10180 10179 10180 10181 10182 10182 10181 10180 10180 10178 10178 10177 10177 10176 10176 10176 10175 10174 10173 10171 10169 10167 10166 10165 10165 10163 10162 10160 10158 10156 10153 10151 10148 10146 10143 10141 10138 10135 10132 10129 10125 10122 10118 10115 10111 10107 10104 10100 10097 10094 10090 10087 10083 10079 10075 10070
10165 10165 10166 10166 10167 10167 10167 10168 10168 10169 10169 10170 10170 10170 10170 10170 10171 10171 10172 10172 10173 10173 10173 10173 10174 10175 10176 10177 10177 10176 10175 10175 10175 10177 10178 10178 10177 10176 10175 10173 10173 10173 10173 10173 10172 10172 10172 10170 10168 10167 10165 10163 10162 10160 10160 10159 10158 10155 10153 10150 10148 10146 10143 10142 10139 10137 10133 10130 10127 10123 10120 10116 10112 10108 10105 10102 10098 10095 10092 10088 10085 10082 10077 10073 10069 10065
10160 10160 10160 10161 10162 10162 10162 10163 10163 10164 10164 10165 10165 10165 10166 10166 10167 10167 10167 10168 10168 10169 10169 10170 10171 10172 10172 10172 10172 10171 10170 10171 10172 10173 10173 10173 10172 10172 10171 10169 10169 10170 10170 10169 10168 10168 10167 10165 10163 10162 10161 10160 10158 10157 10155 10153 10152 10150 10148 10145 10143 10141 10138 10136 10134 10132 10128 10125 10121 10117 10113 10110 10107 10103 10099 10097 10093 10090 10087 10083 10080 10076 10072 10067 10063 10060
10155 10155 10155 10156 10156 10157 10157 10158 10158 10159 10160 10160 10160 10160 10161 10162 10162 10163 10163 10163 10164 10165 10165 10167 10167 10168 10168 10168 10167 10167 10167 10167 10168 10168 10168 10168 10167 10167 10167 10165 10165 10165 10166 10166 10165 10163 10162 10161 10159 10157 10156 10155 10153 10152 10150 10149 10147 10145 10142 10140 10138 10137 10134 10132 10129 10127 10123 10119 10115 10112 10108 10105 10101 10097 10093 10090 10087 10084 10080 10077 10073 10069 10065 10061 10057 10053
10150 10150 10150 10151 10152 10152 10153 10153 10154 10155 10155 10155 10156 10156 10157 10157 10158 10158 10158 10159 10160 10161 10162 10163 10164 10164 10164 10163 10163 10162 10163 10163 10163 10163 10163 10163 10163 10163 10162 10162 10162 10162 10162 10162 10161 10160 10158 10157 10155 10153 10152 10150 10148 10147 10146 10145 10143 10140 10137 10135 10133 10131 10130 10127 10125 10121 10117 10113 10110 10105 10102 10098 10095 10092 10088 10084 10081 10077 10073 10070 10066 10062 10059 10055 10051 10047
10145 10145 10145 10146 10147 10148 10148 10149 10150 10150 10150 10151 10152 10152 10153 10153 10153 10154 10154 10155 10156 10157 10158 10159 10160 10160 10160 10158 10158 10158 10159 10159 10160 10160 10159 10159 10158 10158 10158 10158 10158 10158 10158 10157 10157 10155 10153 10152 10150 10148 10147 10145 10143 10142 10140 10139 10137 10135 10132 10130 10127 10125 10124 10122 10119 10115 10112 10107 10103 10100 10095 10092 10088 10085 10082 10078 10075 10071 10068 10064 10060 10056 10052 10049 10045 10041
10140 10140 10141 10142 10142 10143 10143 10144 10145 10146 10147 10147 10147 10147 10148 10148 10149 10150 10150 10152 10153 10154 10155 10156 10156 10156 10155 10155 10155 10155 10155 10156 10156 10155 10155 10155 10155 10155 10155 10155 10155 10155 10154 10153 10152 10150 10149 10148 10145 10143 10142 10141 10139 10137 10135 10133 10131 10129 10127 10125 10122 10120 10118 10116 10113 10110 10105 10101 10098 10094 10090 10086 10082 10078 10075 10072 10068 10065 10062 10058 10054 10050 10046 10043 10039 10035
10135 10136 10136 10137 10138 10138 10139 10140 10141 10142 10142 10143 10143 10143 10143 10144 10145 10146 10147 10148 10149 10150 10151 10152 10152 10152 10151 10151 10151 10152 10152 10152 10152 10152 10152 10151 10152 10152 10152 10152 10152 10152 10150 10149 10147 10146 10145 10143 10142 10139 10138 10136 10134 10132 10129 10127 10125 10123 10121 10119 10117 10114 10112 10109 10107 10104 10100 10095 10092 10088 10085 10080 10076 10072 10068 10065 10062 10058 10055 10052 10048 10045 10040 10036 10032 10028
10131 10132 10132 10133 10133 10134 10135 10136 10137 10137 10138 10138 10138 10139 10140 10141 10142 10142 10143 10144 10145 10146 10147 10148 10148 10147 10147 10147 10147 10148 10148 10148 10148 10148 10148 10148 10148 10148 10149 10149 10148 10147 10146 10145 10143 10141 10140 10138 10137 10135 10133 10131 10129 10127 10123 10121 10118 10117 10115 10113 10111 10108 10105 10102 10099 10097 10094 10090 10086 10082 10078 10074 10070 10066 10062 10059 10056 10053 10049 10046 10042 10038 10034 10030 10025 10020
10127 10127 10128 10129 10130 10130 10131 10132 10132 10133 10134 10135 10135 10135 10137 10137 10138 10138 10140 10140 10142 10142 10143 10143 10143 10143 10143 10143 10144 10145 10145 10145 10145 10145 10145 10145 10145 10146 10145 10145 10144 10143 10142 10140 10138 10137 10135 10135 10133 10131 10128 10126 10123 10120 10118 10115 10113 10111 10108 10107 10105 10102 10099 10096 10093 10090 10087 10083 10080 10076 10072 10068 10064 10060 10056 10053 10050 10047 10043 10039 10035 10031 10027 10022 10018 10013
10123 10123 10124 10125 10126 10127 10127 10127 10128 10130 10130 10132 10132 10132 10133 10133 10134 10135 10136 10137 10138 10138 10140 10140 10140 10140 10140 10140 10141 10142 10142 10142 10142 10142 10142 10142 10142 10142 10142 10140 10139 10138 10137 10136 10135 10134 10133 10130 10128 10125 10123 10120 10118 10115 10113 10110 10108 10105 10102 10100 10098 10095 10092 10090 10087 10084 10080 10077 10073 10070 10066 10062 10058 10053 10050 10046 10043 10040 10036 10033 10028 10024 10019 10015 10010 10006
10118 10120 10120 10121 10122 10123 10123 10124 10125 10127 10127 10128 10128 10129 10130 10130 10130 10131 10132 10133 10134 10135 10136 10137 10137 10137 10137 10138 10138 10139 10139 10138 10138 10138 10139 10139 10139 10138 10137 10136 10135 10134 10133 10132 10132 10130 10129 10126 10123 10120 10117 10115 10112 10110 10108 10105 10102 10099 10096 10094 10092 10088 10085 10083 10080 10077 10074 10071 10067 10063 10059 10056 10052 10047 10043 10040 10036 10032 10029 10025 10022 10017 10013 10008 10003 9999
10115 10116 10117 10117 10118 10119 10120 10121 10122 10123 10124 10125 10125 10125 10126 10127 10127 10128 10129 10130 10132 10132 10133 10133 10133 10134 10134 10135 10136 10137 10137 10136 10136 10136 10136 10136 10135 10134 10133 10132 10131 10130 10130 10129 10128 10126 10123 10121 10118 10115 10113 10110 10107 10104 10102 10100 10097 10094 10091 10088 10085 10082 10079 10076 10073 10070 10068 10064 10061 10057 10053 10049 10045 10040 10037 10033 10029 10025 10022 10018 10015 10011 10007 10002 9997 9993
10112 10112 10113 10114 10115 10116 10117 10118 10119 10120 10121 10121 10122 10122 10123 10123 10124 10125 10126 10127 10128 10129 10130 10130 10131 10132 10132 10133 10133 10133 10134 10134 10133 10133 10133 10132 10131 10130 10129 10128 10128 10127 10127 10125 10123 10121 10118 10117 10114 10112 10109 10106 10103 10099 10096 10093 10091 10088 10085 10082 10080 10077 10073 10070 10067 10064 10061 10058 10054 10050 10047 10043 10039 10035 10030 10026 10022 10018 10015 10012 10008 10005 10001 9997 9992 9988
10108 10109 10110 10111 10112 10113 10113 10114 10115 10117 10117 10118 10118 10120 10120 10120 10122 10122 10123 10124 10125 10127 10127 10128 10128 10130 10130 10131 10131 10131 10131 10131 10130 10130 10128 10128 10127 10126 10125 10125 10124 10123 10122 10120 10118 10117 10114 10112 10110 10107 10105 10102 10098 10095 10091 10088 10085 10083 10080 10077 10074 10071 10067 10063 10060 10058 10055 10051 10047 10044 10040 10037 10033 10029 10025 10020 10016 10012 10008 10005 10002 9998 9995 9991 9987 9983
10105 10105 10107 10108 10108 10110 10110 10112 10113 10113 10114 10115 10116 10117 10117 10118 10118 10119 10120 10122 10123 10124 10125 10127 10127 10128 10128 10128 10128 10128 10128 10127 10127 10125 10124 10123 10123 10123 10122 10121 10120 10118 10117 10115 10113 10112 10109 10107 10103 10102 10100 10098 10095 10091 10086 10082 10079 10077 10074 10071 10068 10065 10062 10058 10054 10051 10048 10045 10041 10037 10034 10030 10026 10023 10019 10015 10010 10005 10002 9998 9996 9993 9990 9986 9982 9978
10101 10102 10103 10105 10105 10106 10107 10108 10110 10110 10111 10112 10113 10113 10114 10115 10115 10116 10118 10119 10121 10123 10124 10125 10126 10127 10126 10125 10125 10125 10124 10123 10122 10122 10120 10120 10120 10119 10118 10117 10115 10114 10112 10110 10108 10107 10105 10102 10099 10096 10093 10092 10091 10088 10083 10078 10074 10070 10067 10064 10062 10059 10056 10052 10048 10045 10042 10038 10035 10032 10028 10024 10020 10017 10013 10008 10004 9999 9995 9992 9990 9987 9984 9982 9978 9974